This is the latest recevied weather packets stored in our database for station/object VU3IZK-13. If no packets are shown the sender has not sent any weather packets the latest 10 day(s).
| Time | Temp. | Humidity | Pressure | Rain* | Wind** | Luminosity | Snow |
|---|---|---|---|---|---|---|---|
| 1777569331 | 25° C | 66% | 0 hPa | 0 mm | - | - | - |
| 1777568411 | 25° C | 62% | 0 hPa | 0 mm | - | - | - |
| 1777567512 | 25° C | 63% | 0 hPa | 0 mm | - | - | - |
| 1777566612 | 25° C | 66% | 0 hPa | 0 mm | - | - | - |
| 1777565731 | 24.44° C | 71% | 0 hPa | 0 mm | - | - | - |
| 1777564809 | 24.44° C | 71% | 0 hPa | 0 mm | - | - | - |
| 1777563909 | 25.56° C | 70% | 0 hPa | 0 mm | - | - | - |
| 1777563027 | 25.56° C | 68% | 0 hPa | 0 mm | - | - | - |
| 1777562107 | 26.11° C | 66% | 0 hPa | 0 mm | - | - | - |
| 1777561208 | 26.11° C | 64% | 0 hPa | 0 mm | - | - | - |
| 1777560308 | 26.11° C | 65% | 0 hPa | 0 mm | - | - | - |
| 1777559431 | 26.67° C | 64% | 0 hPa | 0 mm | - | - | - |
| 1777558510 | 27.22° C | 57% | 0 hPa | 0 mm | - | - | - |
| 1777557611 | 27.22° C | 53% | 0 hPa | 0 mm | - | - | - |
| 1777556711 | 27.78° C | 52% | 0 hPa | 0 mm | - | - | - |
| 1777555829 | 28.33° C | 48% | 0 hPa | 0 mm | - | - | - |
| 1777554908 | 28.89° C | 47% | 0 hPa | 0 mm | - | - | - |
| 1777554008 | 28.89° C | 55% | 0 hPa | 0 mm | - | - | - |
| 1777553131 | 29.44° C | 54% | 0 hPa | 0 mm | - | - | - |
| 1777552232 | 30.56° C | 55% | 0 hPa | 0 mm | - | - | - |
| 1777551311 | 31.67° C | 49% | 0 hPa | 0 mm | - | - | - |
| 1777550450 | 32.22° C | 43% | 0 hPa | 0 mm | - | - | - |
| 1777549529 | 32.78° C | 40% | 0 hPa | 0 mm | - | - | - |
| 1777548610 | 32.78° C | 39% | 0 hPa | 0 mm | - | - | - |
| 1777547710 | 33.33° C | 36% | 0 hPa | 0 mm | - | - | - |
* Rain latest hour (hover to see other rain measurements)
** Current wind speed in m/s (hover to see current wind gust speed)